Time,TemperatureF,DewpointF,PressureIn,WindDirection,WindDirectionDegrees,WindSpeedMPH,WindSpeedGustMPH,Humidity,HourlyPrecipIn,Conditions,Clouds,dailyrainin,SoftwareType,DateUTC
2013-03-19 00:03:00,66.0,61.0,-100.00,South,190,21.0,27.0,82,-99.99,,,-99.99,,2013-03-19 04:03:00,
2013-03-19 00:13:00,67.0,61.0,-100.00,SSW,210,11.0,27.0,82,-99.99,,,-99.99,,2013-03-19 04:13:00,
2013-03-19 00:23:00,60.0,58.0,-100.00,NW,310,21.0,34.0,92,-99.99,,,-99.99,,2013-03-19 04:23:00,
2013-03-19 00:34:00,58.0,56.0,-100.00,West,270,13.0,32.0,93,-99.99,,,-99.99,,2013-03-19 04:34:00,
2013-03-19 00:43:00,57.0,56.0,-100.00,NW,325,8.0,25.0,94,-99.99,,,-99.99,,2013-03-19 04:43:00,
2013-03-19 00:52:00,57.0,55.0,-100.00,NW,320,5.0,30.0,94,-99.99,,,-99.99,,2013-03-19 04:52:00,
2013-03-19 01:02:00,57.0,55.0,-100.00,NNW,330,5.0,22.0,94,-99.99,,,-99.99,,2013-03-19 05:02:00,
2013-03-19 01:12:00,57.0,55.0,-100.00,NNW,330,2.0,7.0,94,-99.99,,,-99.99,,2013-03-19 05:12:00,
2013-03-19 01:22:00,56.0,55.0,-100.00,NNW,330,3.0,8.0,94,-99.99,,,-99.99,,2013-03-19 05:22:00,
2013-03-19 01:32:00,56.0,55.0,-100.00,North,355,0.0,4.0,94,-99.99,,,-99.99,,2013-03-19 05:32:00,
2013-03-19 01:43:00,55.0,54.0,-100.00,NNW,345,0.0,1.0,94,-99.99,,,-99.99,,2013-03-19 05:43:00,
2013-03-19 01:52:00,55.0,54.0,-100.00,North,0,0.0,1.0,94,-99.99,,,-99.99,,2013-03-19 05:52:00,
2013-03-19 02:03:00,55.0,54.0,-100.00,North,0,0.0,0.0,94,-99.99,,,-99.99,,2013-03-19 06:03:00,
2013-03-19 02:12:00,55.0,54.0,-100.00,North,0,1.0,3.0,94,-99.99,,,-99.99,,2013-03-19 06:12:00,
2013-03-19 02:22:00,55.0,54.0,-100.00,NW,325,0.0,4.0,94,-99.99,,,-99.99,,2013-03-19 06:22:00,
2013-03-19 02:32:00,56.0,54.0,-100.00,SSW,205,0.0,1.0,94,-99.99,,,-99.99,,2013-03-19 06:32:00,
2013-03-19 02:42:00,56.0,54.0,-100.00,SSE,150,2.0,5.0,94,-99.99,,,-99.99,,2013-03-19 06:42:00,
2013-03-19 02:52:00,56.0,54.0,-100.00,SE,145,0.0,6.0,94,-99.99,,,-99.99,,2013-03-19 06:52:00,
2013-03-19 03:03:00,56.0,54.0,-100.00,SE,145,4.0,10.0,94,-99.99,,,-99.99,,2013-03-19 07:03:00,
2013-03-19 03:12:00,56.0,55.0,-100.00,South,175,1.0,9.0,94,-99.99,,,-99.99,,2013-03-19 07:12:00,
2013-03-19 03:22:00,56.0,54.0,-100.00,SSE,160,0.0,5.0,93,-99.99,,,-99.99,,2013-03-19 07:22:00,
2013-03-19 03:32:00,56.0,54.0,-100.00,South,185,1.0,2.0,93,-99.99,,,-99.99,,2013-03-19 07:32:00,
2013-03-19 03:42:00,57.0,55.0,-100.00,SW,230,0.0,5.0,93,-99.99,,,-99.99,,2013-03-19 07:42:00,
2013-03-19 03:52:00,57.0,55.0,-100.00,WSW,255,1.0,5.0,93,-99.99,,,-99.99,,2013-03-19 07:52:00,
2013-03-19 04:03:00,57.0,55.0,-100.00,West,280,1.0,4.0,93,-99.99,,,-99.99,,2013-03-19 08:03:00,
2013-03-19 04:12:00,57.0,55.0,-100.00,SW,230,4.0,6.0,93,-99.99,,,-99.99,,2013-03-19 08:12:00,
2013-03-19 04:22:00,57.0,55.0,-100.00,WSW,255,0.0,5.0,93,-99.99,,,-99.99,,2013-03-19 08:22:00,
2013-03-19 04:32:00,57.0,55.0,-100.00,West,265,0.0,1.0,93,-99.99,,,-99.99,,2013-03-19 08:32:00,
2013-03-19 04:42:00,57.0,55.0,-100.00,WSW,240,0.0,4.0,93,-99.99,,,-99.99,,2013-03-19 08:42:00,
2013-03-19 04:52:00,57.0,55.0,-100.00,WSW,250,0.0,5.0,93,-99.99,,,-99.99,,2013-03-19 08:52:00,
2013-03-19 05:03:00,57.0,55.0,-100.00,WSW,245,0.0,4.0,93,-99.99,,,-99.99,,2013-03-19 09:03:00,
2013-03-19 05:12:00,57.0,55.0,-100.00,WSW,250,1.0,14.0,93,-99.99,,,-99.99,,2013-03-19 09:12:00,
2013-03-19 05:23:00,57.0,55.0,-100.00,WSW,255,0.0,4.0,93,-99.99,,,-99.99,,2013-03-19 09:23:00,
2013-03-19 05:33:00,57.0,55.0,-100.00,WSW,250,0.0,2.0,93,-99.99,,,-99.99,,2013-03-19 09:33:00,
2013-03-19 05:43:00,57.0,55.0,-100.00,West,270,0.0,5.0,93,-99.99,,,-99.99,,2013-03-19 09:43:00,
2013-03-19 05:53:00,57.0,55.0,-100.00,NW,320,0.0,3.0,93,-99.99,,,-99.99,,2013-03-19 09:53:00,
2013-03-19 06:04:00,57.0,55.0,-100.00,WNW,300,1.0,4.0,93,-99.99,,,-99.99,,2013-03-19 10:04:00,
2013-03-19 06:13:00,57.0,55.0,-100.00,NW,305,0.0,4.0,93,-99.99,,,-99.99,,2013-03-19 10:13:00,
2013-03-19 06:23:00,57.0,55.0,-100.00,West,275,0.0,4.0,93,-99.99,,,-99.99,,2013-03-19 10:23:00,
2013-03-19 06:33:00,57.0,55.0,-100.00,West,275,1.0,4.0,93,-99.99,,,-99.99,,2013-03-19 10:33:00,
2013-03-19 06:42:00,57.0,55.0,-100.00,WNW,285,0.0,4.0,93,-99.99,,,-99.99,,2013-03-19 10:42:00,
2013-03-19 06:52:00,57.0,55.0,-100.00,WNW,290,0.0,4.0,93,-99.99,,,-99.99,,2013-03-19 10:52:00,
2013-03-19 07:03:00,57.0,55.0,-100.00,WNW,285,0.0,3.0,93,-99.99,,,-99.99,,2013-03-19 11:03:00,
2013-03-19 07:12:00,57.0,55.0,-100.00,WSW,245,0.0,4.0,93,-99.99,,,-99.99,,2013-03-19 11:12:00,
2013-03-19 07:22:00,57.0,55.0,-100.00,West,265,0.0,4.0,93,-99.99,,,-99.99,,2013-03-19 11:22:00,
2013-03-19 07:33:00,57.0,55.0,-100.00,West,270,0.0,5.0,93,-99.99,,,-99.99,,2013-03-19 11:33:00,
2013-03-19 07:43:00,57.0,55.0,-100.00,WSW,255,0.0,3.0,93,-99.99,,,-99.99,,2013-03-19 11:43:00,
2013-03-19 07:52:00,57.0,55.0,-100.00,West,275,0.0,4.0,93,-99.99,,,-99.99,,2013-03-19 11:52:00,
2013-03-19 08:02:00,57.0,55.0,-100.00,WNW,290,0.0,2.0,93,-99.99,,,-99.99,,2013-03-19 12:02:00,
2013-03-19 08:12:00,57.0,55.0,-100.00,WNW,300,0.0,4.0,93,-99.99,,,-99.99,,2013-03-19 12:12:00,
2013-03-19 08:23:00,57.0,55.0,-100.00,NW,305,0.0,3.0,93,-99.99,,,-99.99,,2013-03-19 12:23:00,
2013-03-19 08:33:00,57.0,55.0,-100.00,NW,305,0.0,3.0,93,-99.99,,,-99.99,,2013-03-19 12:33:00,
2013-03-19 08:43:00,58.0,56.0,-100.00,WSW,255,0.0,4.0,93,-99.99,,,-99.99,,2013-03-19 12:43:00,
2013-03-19 08:52:00,59.0,56.0,-100.00,WSW,245,0.0,4.0,92,-99.99,,,-99.99,,2013-03-19 12:52:00,
2013-03-19 09:02:00,58.0,56.0,-100.00,NW,320,0.0,4.0,92,-99.99,,,-99.99,,2013-03-19 13:02:00,
2013-03-19 09:12:00,58.0,56.0,-100.00,NW,325,0.0,3.0,92,-99.99,,,-99.99,,2013-03-19 13:12:00,
2013-03-19 09:23:00,58.0,56.0,-100.00,West,275,0.0,5.0,92,-99.99,,,-99.99,,2013-03-19 13:23:00,
2013-03-19 09:33:00,58.0,55.0,-100.00,West,280,1.0,6.0,91,-99.99,,,-99.99,,2013-03-19 13:33:00,
2013-03-19 09:42:00,58.0,55.0,-100.00,WNW,290,1.0,8.0,91,-99.99,,,-99.99,,2013-03-19 13:42:00,
2013-03-19 09:52:00,58.0,55.0,-100.00,NW,310,5.0,14.0,91,-99.99,,,-99.99,,2013-03-19 13:52:00,
2013-03-19 10:02:00,58.0,55.0,-100.00,NW,305,9.0,19.0,91,-99.99,,,-99.99,,2013-03-19 14:02:00,
2013-03-19 10:12:00,58.0,55.0,-100.00,WNW,300,11.0,21.0,90,-99.99,,,-99.99,,2013-03-19 14:12:00,
2013-03-19 10:22:00,58.0,55.0,-100.00,WNW,300,6.0,19.0,90,-99.99,,,-99.99,,2013-03-19 14:22:00,
2013-03-19 10:32:00,58.0,55.0,-100.00,WNW,300,6.0,17.0,89,-99.99,,,-99.99,,2013-03-19 14:32:00,
2013-03-19 10:42:00,58.0,55.0,-100.00,NW,305,9.0,17.0,89,-99.99,,,-99.99,,2013-03-19 14:42:00,
2013-03-19 10:52:00,58.0,55.0,-100.00,NW,305,9.0,17.0,89,-99.99,,,-99.99,,2013-03-19 14:52:00,
2013-03-19 11:02:00,58.0,55.0,-100.00,NW,305,9.0,23.0,87,-99.99,,,-99.99,,2013-03-19 15:02:00,
2013-03-19 11:12:00,59.0,55.0,-100.00,NW,315,6.0,18.0,87,-99.99,,,-99.99,,2013-03-19 15:12:00,
2013-03-19 11:23:00,59.0,54.0,-100.00,NW,310,12.0,19.0,84,-99.99,,,-99.99,,2013-03-19 15:23:00,
2013-03-19 11:34:00,60.0,54.0,-100.00,NW,310,13.0,20.0,82,-99.99,,,-99.99,,2013-03-19 15:34:00,
2013-03-19 11:44:00,60.0,54.0,-100.00,NNW,335,4.0,19.0,79,-99.99,,,-99.99,,2013-03-19 15:44:00,
2013-03-19 11:53:00,60.0,54.0,-100.00,NNW,335,4.0,19.0,79,-99.99,,,-99.99,,2013-03-19 15:53:00,
2013-03-19 12:04:00,61.0,53.0,-100.00,NW,320,8.0,35.0,76,-99.99,,,-99.99,,2013-03-19 16:04:00,
2013-03-19 12:13:00,61.0,53.0,-100.00,NW,325,7.0,21.0,74,-99.99,,,-99.99,,2013-03-19 16:13:00,
2013-03-19 12:24:00,62.0,53.0,-100.00,NNW,335,4.0,24.0,73,-99.99,,,-99.99,,2013-03-19 16:24:00,
2013-03-19 12:34:00,62.0,52.0,-100.00,NNW,340,6.0,17.0,70,-99.99,,,-99.99,,2013-03-19 16:34:00,
2013-03-19 12:44:00,63.0,51.0,-100.00,NNW,335,4.0,19.0,67,-99.99,,,-99.99,,2013-03-19 16:44:00,
2013-03-19 12:54:00,63.0,50.0,-100.00,NNW,335,9.0,24.0,63,-99.99,,,-99.99,,2013-03-19 16:54:00,
2013-03-19 13:03:00,63.0,50.0,-100.00,NNW,335,9.0,24.0,63,-99.99,,,-99.99,,2013-03-19 17:03:00,
2013-03-19 13:14:00,64.0,50.0,-100.00,NW,315,8.0,15.0,60,-99.99,,,-99.99,,2013-03-19 17:14:00,
2013-03-19 13:24:00,64.0,50.0,-100.00,NNW,335,5.0,17.0,60,-99.99,,,-99.99,,2013-03-19 17:24:00,
2013-03-19 13:34:00,64.0,49.0,-100.00,NNW,335,4.0,22.0,59,-99.99,,,-99.99,,2013-03-19 17:34:00,
2013-03-19 13:44:00,64.0,50.0,-100.00,NNW,335,2.0,12.0,59,-99.99,,,-99.99,,2013-03-19 17:44:00,
2013-03-19 13:53:00,65.0,48.0,-100.00,NNW,330,6.0,16.0,55,-99.99,,,-99.99,,2013-03-19 17:53:00,
2013-03-19 14:03:00,65.0,49.0,-100.00,NNW,340,1.0,21.0,56,-99.99,,,-99.99,,2013-03-19 18:03:00,
2013-03-19 14:14:00,65.0,49.0,-100.00,NNW,330,4.0,13.0,56,-99.99,,,-99.99,,2013-03-19 18:14:00,
2013-03-19 14:23:00,66.0,49.0,-100.00,NW,315,6.0,23.0,53,-99.99,,,-99.99,,2013-03-19 18:23:00,
2013-03-19 14:34:00,66.0,49.0,-100.00,North,350,1.0,16.0,54,-99.99,,,-99.99,,2013-03-19 18:34:00,
2013-03-19 14:43:00,66.0,49.0,-100.00,NNW,340,1.0,11.0,53,-99.99,,,-99.99,,2013-03-19 18:43:00,
2013-03-19 14:53:00,66.0,49.0,-100.00,NNW,340,1.0,11.0,53,-99.99,,,-99.99,,2013-03-19 18:53:00,
2013-03-19 15:03:00,67.0,48.0,-100.00,NNW,340,0.0,5.0,51,-99.99,,,-99.99,,2013-03-19 19:03:00,
2013-03-19 15:12:00,67.0,48.0,-100.00,NNW,340,0.0,14.0,49,-99.99,,,-99.99,,2013-03-19 19:12:00,
2013-03-19 15:22:00,68.0,48.0,-100.00,NNW,335,1.0,14.0,48,-99.99,,,-99.99,,2013-03-19 19:22:00,
2013-03-19 15:33:00,69.0,46.0,-100.00,NNW,335,10.0,21.0,44,-99.99,,,-99.99,,2013-03-19 19:33:00,
2013-03-19 15:43:00,69.0,46.0,-100.00,NNW,335,1.0,20.0,43,-99.99,,,-99.99,,2013-03-19 19:43:00,
2013-03-19 15:52:00,69.0,46.0,-100.00,NNW,330,3.0,16.0,43,-99.99,,,-99.99,,2013-03-19 19:52:00,
2013-03-19 16:03:00,71.0,44.0,-100.00,NW,315,1.0,11.0,39,-99.99,,,-99.99,,2013-03-19 20:03:00,
2013-03-19 16:12:00,71.0,44.0,-100.00,NW,315,3.0,14.0,38,-99.99,,,-99.99,,2013-03-19 20:12:00,
2013-03-19 16:23:00,71.0,44.0,-100.00,NW,305,1.0,10.0,38,-99.99,,,-99.99,,2013-03-19 20:23:00,
2013-03-19 16:33:00,72.0,42.0,-100.00,WNW,295,1.0,13.0,35,-99.99,,,-99.99,,2013-03-19 20:33:00,
2013-03-19 16:43:00,72.0,40.0,-100.00,NW,310,6.0,18.0,31,-99.99,,,-99.99,,2013-03-19 20:43:00,
2013-03-19 16:52:00,72.0,38.0,-100.00,NW,315,9.0,20.0,29,-99.99,,,-99.99,,2013-03-19 20:52:00,
2013-03-19 17:02:00,72.0,38.0,-100.00,NW,305,7.0,18.0,29,-99.99,,,-99.99,,2013-03-19 21:02:00,
2013-03-19 17:12:00,73.0,37.0,-100.00,WNW,290,4.0,15.0,27,-99.99,,,-99.99,,2013-03-19 21:12:00,
2013-03-19 17:23:00,73.0,38.0,-100.00,WNW,300,9.0,17.0,28,-99.99,,,-99.99,,2013-03-19 21:23:00,
2013-03-19 17:34:00,74.0,38.0,-100.00,NW,305,4.0,14.0,27,-99.99,,,-99.99,,2013-03-19 21:34:00,
2013-03-19 17:43:00,74.0,35.0,-100.00,WNW,300,8.0,15.0,24,-99.99,,,-99.99,,2013-03-19 21:43:00,
2013-03-19 17:53:00,73.0,34.0,-100.00,WNW,295,5.0,16.0,24,-99.99,,,-99.99,,2013-03-19 21:53:00,
2013-03-19 18:03:00,74.0,34.0,-100.00,WNW,285,4.0,18.0,23,-99.99,,,-99.99,,2013-03-19 22:03:00,
2013-03-19 18:13:00,73.0,33.0,-100.00,NW,310,6.0,16.0,23,-99.99,,,-99.99,,2013-03-19 22:13:00,
2013-03-19 18:24:00,73.0,33.0,-100.00,NW,320,4.0,21.0,23,-99.99,,,-99.99,,2013-03-19 22:24:00,
2013-03-19 18:33:00,74.0,33.0,-100.00,NW,305,4.0,13.0,23,-99.99,,,-99.99,,2013-03-19 22:33:00,
2013-03-19 18:43:00,73.0,32.0,-100.00,NW,315,9.0,15.0,22,-99.99,,,-99.99,,2013-03-19 22:43:00,
2013-03-19 18:53:00,73.0,30.0,-100.00,NW,315,9.0,18.0,20,-99.99,,,-99.99,,2013-03-19 22:53:00,
2013-03-19 19:03:00,73.0,30.0,-100.00,WNW,300,9.0,19.0,20,-99.99,,,-99.99,,2013-03-19 23:03:00,
2013-03-19 19:12:00,73.0,30.0,-100.00,WNW,300,9.0,19.0,20,-99.99,,,-99.99,,2013-03-19 23:12:00,
2013-03-19 19:22:00,73.0,29.0,-100.00,WNW,290,9.0,17.0,19,-99.99,,,-99.99,,2013-03-19 23:22:00,
2013-03-19 19:33:00,73.0,28.0,-100.00,NW,305,6.0,16.0,19,-99.99,,,-99.99,,2013-03-19 23:33:00,
2013-03-19 19:43:00,73.0,28.0,-100.00,WNW,300,6.0,14.0,19,-99.99,,,-99.99,,2013-03-19 23:43:00,
2013-03-19 19:52:00,72.0,28.0,-100.00,WNW,300,4.0,12.0,19,-99.99,,,-99.99,,2013-03-19 23:52:00,
2013-03-19 20:03:00,72.0,28.0,-100.00,WNW,295,1.0,9.0,19,-99.99,,,-99.99,,2013-03-20 00:03:00,
2013-03-19 20:13:00,72.0,29.0,-100.00,WNW,295,4.0,10.0,20,-99.99,,,-99.99,,2013-03-20 00:13:00,
2013-03-19 20:22:00,70.0,31.0,-100.00,NNW,340,0.0,10.0,23,-99.99,,,-99.99,,2013-03-20 00:22:00,
2013-03-19 20:33:00,70.0,34.0,-100.00,North,5,6.0,8.0,27,-99.99,,,-99.99,,2013-03-20 00:33:00,
2013-03-19 20:42:00,68.0,37.0,-100.00,North,5,5.0,8.0,31,-99.99,,,-99.99,,2013-03-20 00:42:00,
2013-03-19 20:52:00,69.0,37.0,-100.00,NNW,345,5.0,8.0,31,-99.99,,,-99.99,,2013-03-20 00:52:00,
2013-03-19 21:03:00,68.0,38.0,-100.00,North,0,0.0,2.0,33,-99.99,,,-99.99,,2013-03-20 01:03:00,
2013-03-19 21:12:00,68.0,38.0,-100.00,North,355,0.0,1.0,33,-99.99,,,-99.99,,2013-03-20 01:12:00,
2013-03-19 21:23:00,69.0,38.0,-100.00,North,350,0.0,1.0,32,-99.99,,,-99.99,,2013-03-20 01:23:00,
2013-03-19 21:32:00,69.0,37.0,-100.00,NNW,345,0.0,1.0,31,-99.99,,,-99.99,,2013-03-20 01:32:00,
2013-03-19 21:43:00,69.0,37.0,-100.00,North,350,0.0,1.0,31,-99.99,,,-99.99,,2013-03-20 01:43:00,
2013-03-19 21:52:00,69.0,37.0,-100.00,North,350,0.0,1.0,31,-99.99,,,-99.99,,2013-03-20 01:52:00,
2013-03-19 22:02:00,68.0,34.0,-100.00,NNW,335,0.0,1.0,28,-99.99,,,-99.99,,2013-03-20 02:02:00,
2013-03-19 22:12:00,68.0,33.0,-100.00,NNW,340,0.0,2.0,27,-99.99,,,-99.99,,2013-03-20 02:12:00,
2013-03-19 22:23:00,68.0,32.0,-100.00,NNW,330,0.0,1.0,26,-99.99,,,-99.99,,2013-03-20 02:23:00,
2013-03-19 22:32:00,68.0,31.0,-100.00,NNW,330,0.0,1.0,25,-99.99,,,-99.99,,2013-03-20 02:32:00,
2013-03-19 22:42:00,67.0,28.0,-100.00,NNW,330,0.0,2.0,23,-99.99,,,-99.99,,2013-03-20 02:42:00,
2013-03-19 22:52:00,67.0,28.0,-100.00,NNW,330,1.0,1.0,23,-99.99,,,-99.99,,2013-03-20 02:52:00,
2013-03-19 23:02:00,66.0,27.0,-100.00,NNW,335,0.0,5.0,23,-99.99,,,-99.99,,2013-03-20 03:02:00,
2013-03-19 23:12:00,65.0,28.0,-100.00,NNW,340,1.0,3.0,24,-99.99,,,-99.99,,2013-03-20 03:12:00,
2013-03-19 23:22:00,65.0,28.0,-100.00,NNW,340,1.0,2.0,25,-99.99,,,-99.99,,2013-03-20 03:22:00,
2013-03-19 23:34:00,65.0,28.0,-100.00,NNW,335,5.0,11.0,25,-99.99,,,-99.99,,2013-03-20 03:34:00,
2013-03-19 23:43:00,65.0,27.0,-100.00,NNW,335,21.0,75.0,24,-99.99,,,-99.99,,2013-03-20 03:43:00,
2013-03-19 23:53:00,64.0,27.0,-100.00,NNW,340,20.0,66.0,24,-99.99,,,-99.99,,2013-03-20 03:53:00,